[[{"header":{"parameterUnit":"m.s-1","parameterCategory":1,"la1":30.2991,"la2":30.254,"lo1":-89.0895,"lo2":-89.0444,"dy":0.0017,"dx":0.0017,"nx":28,"ny":28,"refTime":"2025-12-20T09:00:00:Z","depth":0,"parameterNumber":2,"parameterNumberName":"U-component_of_WINDS"},"data":[0,0,0,0,0,0,0,0,0,0,0,0,0,0,0,0,0,0,0,0,0,0,0,0,0,0,0,0,0,0,0,0,0,0,0,0,0,0,0,0,0,0,0,0,0,0,0,0,0,0,0,0,0,0,0,0,0,0,-2.5008,-2.5008,0,-2.5014,-2.5015,-2.5015,-2.4985,-2.4984,-2.4983,-2.4983,-2.499,-2.4991,-2.4992,0,0,0,0,0,0,0,0,0,0,0,0,0,-2.497,-2.4971,-2.5008,-2.5008,-2.5008,-2.5014,-2.5015,-2.5015,-2.4985,-2.4984,-2.4983,-2.4982,-2.499,-2.4991,-2.4992,0,0,0,0,0,0,0,0,0,0,0,0,0,-2.4982,-2.4971,-2.5008,-2.4994,-2.4993,-2.5014,-2.5015,-2.5015,-2.4985,-2.4984,-2.4983,-2.4982,-2.499,-2.4991,-2.4993,-2.5028,0,0,-2.4997,-2.4998,0,0,0,0,0,0,0,0,-2.4982,-2.4984,-2.4996,-2.4995,-2.4994,-2.4998,-2.5004,-2.5019,-2.4986,-2.4988,-2.4983,-2.4981,-2.4994,-2.4995,-2.4999,-2.5028,-2.5029,-2.4997,-2.4998,-2.4999,-2.4999,0,0,0,0,0,0,0,-2.4981,-2.4983,-2.501,-2.4996,-2.4995,-2.4988,-2.4988,-2.5007,-2.4998,-2.4988,-2.4986,-2.4987,-2.4993,-2.4998,-2.4999,-2.5029,-2.4997,-2.4999,-2.5,-2.5,-2.5085,-2.5086,0,0,0,0,0,0,-2.4982,-2.4983,-2.501,-2.5011,-2.4984,-2.4989,-2.499,-2.4998,-2.4998,-2.4997,-2.4988,-2.4986,-2.4996,-2.4997,-2.4999,-2.5039,-2.4999,-2.5,-2.5001,-2.5084,-2.5085,-2.5087,0,0,0,0,0,0,-2.4981,-2.4985,-2.501,-2.4996,-2.4999,-2.4991,-2.5001,-2.4999,-2.5003,-2.4998,-2.4996,-2.4994,-2.4995,-2.4997,-2.502,-2.5038,-2.5001,-2.5002,-2.5082,-2.5084,-2.5086,-2.5119,0,0,0,0,0,0,-2.498,-2.4984,-2.4998,-2.4997,-2.5,-2.5031,-2.5002,-2.5,-2.5006,-2.5002,-2.5004,-2.5002,-2.4994,-2.5018,-2.5022,-2.504,-2.5004,-2.508,-2.5083,-2.5085,-2.5116,-2.5122,-2.5127,0,0,0,0,0,-2.4979,-2.5008,-2.4999,-2.5002,-2.5016,-2.5032,-2.5034,-2.5023,-2.5007,-2.502,-2.5017,-2.5002,-2.5036,-2.5021,-2.5025,-2.5044,-2.5079,-2.5082,-2.5085,-2.5114,-2.5121,-2.5127,0,0,0,0,0,0,-2.5012,-2.5007,-2.4997,-2.5027,-2.503,-2.5027,-2.5044,-2.5031,-2.504,-2.5036,-2.5023,-2.5024,-2.5049,-2.5049,-2.5032,-2.5077,-2.5055,-2.5059,-2.5075,-2.5082,-2.5087,-2.5086,-2.5005,0,0,0,0,0,-2.5023,-2.5036,-2.5031,-2.5057,-2.5059,-2.5051,-2.5058,-2.5049,-2.5052,-2.5054,-2.5052,-2.5056,-2.5067,-2.5075,-2.5085,-2.5117,-2.5115,-2.5131,-2.5137,-2.5141,-2.5144,-2.5158,-2.5165,-2.5097,-2.5097,-2.5097,0,0,-2.5045,-2.5044,-2.5053,-2.5064,-2.5065,-2.5079,-2.5053,-2.5069,-2.5078,-2.5056,-2.5077,-2.5077,-2.508,-2.5107,-2.5119,-2.5107,-2.5163,-2.5145,-2.5148,-2.5149,-2.5162,-2.5169,-2.5174,-2.5099,-2.5098,-2.5098,0,0,-2.5091,-2.5093,-2.5114,-2.5115,-2.5118,-2.5112,-2.5117,-2.5116,-2.5114,-2.5135,-2.5118,-2.513,-2.515,-2.5152,-2.5156,-2.5203,-2.5189,-2.5207,-2.5234,-2.5248,-2.5253,-2.5258,-2.5272,-2.5278,-2.521,-2.521,-2.521,0,-2.5119,-2.5138,-2.5126,-2.5142,-2.5147,-2.5127,-2.5147,-2.515,-2.5156,-2.516,-2.5147,-2.5171,-2.5172,-2.5198,-2.5209,-2.5214,-2.5218,-2.5206,-2.5253,-2.5258,-2.5262,-2.5276,-2.5282,-2.5212,-2.5212,-2.5212,-2.5212,0,-2.517,-2.5184,-2.5201,-2.5205,-2.5212,-2.5231,-2.5221,-2.523,-2.522,-2.5216,-2.5237,-2.5237,-2.5246,-2.5252,-2.5244,-2.5277,-2.5269,-2.5256,-2.5233,-2.5271,-2.5283,-2.5289,-2.5215,-2.5214,-2.5214,-2.5213,0,0,-2.5238,-2.5235,-2.5241,-2.5242,-2.5243,-2.5253,-2.527,-2.5278,-2.5285,-2.529,-2.5303,-2.532,-2.5307,-2.5311,-2.5303,-2.5316,-2.535,-2.53,-2.53,-2.5308,-2.5384,-2.5393,-2.5399,-2.5341,-2.5342,-2.5343,-2.5383,0,-2.5281,-2.531,-2.5299,-2.5328,-2.534,-2.5321,-2.5336,-2.5338,-2.5334,-2.5343,-2.5339,-2.535,-2.5333,-2.5335,-2.5347,-2.5343,-2.5365,-2.5341,-2.5352,-2.5353,-2.535,-2.5406,-2.5416,-2.5453,-2.5388,-2.5389,-2.5389,0,-2.5336,-2.5342,-2.5372,-2.5369,-2.5373,-2.5387,-2.5392,-2.5402,-2.5403,-2.5399,-2.5404,-2.5392,-2.5409,-2.5387,-2.5409,-2.5392,-2.5397,-2.5396,-2.5397,-2.5396,-2.5372,-2.5405,-2.5465,-2.547,-2.5397,-2.5397,-2.5396,0,-2.538,-2.5395,-2.5414,-2.5416,-2.5414,-2.5423,-2.5423,-2.5423,-2.5428,-2.5433,-2.5436,-2.5444,-2.5447,-2.5453,-2.5444,-2.543,-2.5466,-2.5445,-2.5462,-2.5462,-2.5469,-2.5469,-2.5529,-2.5476,-2.5476,-2.5476,-2.5475,0,-2.5429,-2.5447,-2.5433,-2.5445,-2.5465,-2.5452,-2.5472,-2.547,-2.547,-2.548,-2.5466,-2.5476,-2.5464,-2.5473,-2.5466,-2.5483,-2.5486,-2.5483,-2.548,-2.5483,-2.5483,-2.5484,-2.548,-2.5477,-2.5477,-2.5476,-2.5476,0,-2.548,-2.5471,-2.549,-2.5486,-2.5485,-2.55,-2.5496,-2.5507,-2.5502,-2.5515,-2.5518,-2.551,-2.5519,-2.5511,-2.5521,-2.5516,-2.5539,-2.5534,-2.5538,-2.5536,-2.5553,-2.5551,-2.5615,-2.5621,-2.5566,-2.5566,-2.5567,0,-2.5511,-2.5524,-2.5521,-2.5526,-2.5526,-2.5536,-2.554,-2.5529,-2.5534,-2.5536,-2.5546,-2.5554,-2.556,-2.5576,-2.5571,-2.5578,-2.5572,-2.5594,-2.5573,-2.5574,-2.557,-2.5568,-2.5569,-2.5598,-2.5598,-2.5599,-2.5599,0,-2.5565,-2.556,-2.5567,-2.5572,-2.5578,-2.5581,-2.5584,-2.5589,-2.5577,-2.5584,-2.5593,-2.5598,-2.5607,-2.5615,-2.562,-2.5619,-2.5607,-2.5606,-2.561,-2.5612,-2.5613,-2.561,-2.5547,-2.5604,-2.5604,-2.5603,-2.5603,-2.5603,-2.5606,-2.5616,-2.5615,-2.5622,-2.5623,-2.5625,-2.5634,-2.5629,-2.5637,-2.5642,-2.5636,-2.5646,-2.5646,-2.5652,-2.5653,-2.5661,-2.5652,-2.5658,-2.5659,-2.5661,-2.5662,-2.5613,-2.5662,-2.5662,-2.5662,-2.5662,-2.5662,0,-2.5658,-2.5656,-2.5663,-2.5666,-2.5672,-2.566,-2.5662,-2.5667,-2.5677,-2.5678,-2.5683,-2.5693,-2.57,-2.5696,-2.5702,-2.5709,-2.5703,-2.5711,-2.5709,-2.5709,-2.5671,-2.5666,-2.5715,-2.5715,-2.5715,-2.5715,-2.5715,-2.5715,-2.5686,-2.5702,-2.5696,-2.5712,-2.571,-2.5719,-2.5721,-2.5723,-2.5723,-2.5734,-2.574,-2.5737,-2.5735,-2.5741,-2.5747,-2.5745,-2.5747,-2.5756,-2.5753,-2.5717,-2.5712,-2.5707,-2.5701,-2.5757,-2.5757,-2.5789,-2.5789,-2.579]},{"header":{"parameterUnit":"m.s-1","parameterCategory":1,"la1":30.2991,"la2":30.254,"lo1":-89.0895,"lo2":-89.0444,"dy":0.0017,"dx":0.0017,"nx":28,"ny":28,"refTime":"2025-12-20T09:00:00:Z","depth":0,"parameterNumber":3,"parameterNumberName":"V-component_of_WINDS"},"data":[0,0,0,0,0,0,0,0,0,0,0,0,0,0,0,0,0,0,0,0,0,0,0,0,0,0,0,0,0,0,0,0,0,0,0,0,0,0,0,0,0,0,0,0,0,0,0,0,0,0,0,0,0,0,0,0,0,0,2.1071,2.1072,0,2.1161,2.1162,2.1163,2.1173,2.1172,2.1171,2.1171,2.1263,2.1266,2.127,0,0,0,0,0,0,0,0,0,0,0,0,0,2.0912,2.0915,2.1071,2.1072,2.1073,2.116,2.1162,2.1163,2.1173,2.1172,2.1171,2.117,2.1262,2.1266,2.127,0,0,0,0,0,0,0,0,0,0,0,0,0,2.0989,2.0916,2.1071,2.1089,2.1092,2.116,2.1162,2.1163,2.1174,2.1172,2.1171,2.117,2.1261,2.1266,2.127,2.1328,0,0,2.1286,2.1288,0,0,0,0,0,0,0,0,2.0985,2.0995,2.1085,2.1088,2.1091,2.1154,2.1139,2.1218,2.1174,2.1142,2.1171,2.1169,2.1228,2.1236,2.1255,2.1332,2.1336,2.1286,2.1289,2.1291,2.1293,0,0,0,0,0,0,0,2.0979,2.0991,2.1107,2.1087,2.109,2.1094,2.1103,2.1154,2.1192,2.1145,2.1146,2.1156,2.1229,2.1251,2.1258,2.1337,2.1286,2.129,2.1293,2.1295,2.1468,2.1469,0,0,0,0,0,0,2.097,2.0987,2.1104,2.1109,2.1033,2.1097,2.1108,2.1135,2.1191,2.1198,2.1158,2.1157,2.1243,2.1252,2.1261,2.1333,2.1291,2.1296,2.1299,2.1466,2.1468,2.147,0,0,0,0,0,0,2.0967,2.0981,2.11,2.1048,2.1064,2.1102,2.1132,2.1138,2.1159,2.1201,2.1207,2.1172,2.1242,2.1254,2.1311,2.1337,2.1298,2.1302,2.1464,2.1467,2.1469,2.1477,0,0,0,0,0,0,2.0962,2.0979,2.1001,2.1049,2.1066,2.1148,2.1134,2.114,2.1167,2.1167,2.1216,2.1223,2.1242,2.1304,2.1316,2.1343,2.1306,2.1462,2.1465,2.1468,2.1475,2.148,2.1484,0,0,0,0,0,2.0957,2.0999,2.1002,2.1016,2.1094,2.115,2.116,2.1181,2.1169,2.1192,2.1219,2.1221,2.1332,2.131,2.1324,2.1352,2.1461,2.1464,2.1468,2.1473,2.1479,2.1484,0,0,0,0,0,0,2.0954,2.1006,2.1009,2.1069,2.1105,2.1151,2.118,2.1186,2.1226,2.1224,2.1249,2.126,2.1317,2.134,2.1315,2.1411,2.1395,2.1402,2.1394,2.14,2.1404,2.1398,2.131,0,0,0,0,0,2.096,2.1,2.1044,2.1092,2.111,2.1142,2.1167,2.118,2.1219,2.1234,2.1265,2.1303,2.1346,2.1374,2.1416,2.1478,2.149,2.1505,2.1509,2.1512,2.1518,2.1555,2.1563,2.1482,2.1482,2.1482,0,0,2.0973,2.1007,2.1031,2.1092,2.1122,2.1164,2.1155,2.12,2.1232,2.1241,2.1298,2.1322,2.1366,2.1426,2.1454,2.1447,2.1543,2.1517,2.1519,2.1524,2.156,2.1567,2.1574,2.1484,2.1484,2.1483,0,0,2.102,2.1048,2.1093,2.1123,2.1167,2.1189,2.1199,2.1246,2.1262,2.1319,2.1328,2.1366,2.144,2.1472,2.1497,2.1557,2.1562,2.157,2.1594,2.1629,2.1636,2.1642,2.1665,2.1673,2.1576,2.1576,2.1576,0,2.1031,2.1094,2.1115,2.116,2.1188,2.1198,2.1244,2.1272,2.1329,2.1348,2.1339,2.1433,2.1463,2.1532,2.1547,2.1567,2.1581,2.1565,2.1633,2.1639,2.1645,2.1668,2.1676,2.1576,2.1576,2.1576,2.1576,0,2.1107,2.1151,2.1182,2.1236,2.1267,2.1313,2.1341,2.137,2.1381,2.1403,2.1462,2.1499,2.1549,2.1566,2.1577,2.1638,2.1632,2.1628,2.1612,2.1653,2.1675,2.1684,2.1578,2.1577,2.1577,2.1577,0,0,2.1154,2.122,2.1231,2.1257,2.1308,2.1343,2.1389,2.1439,2.1464,2.1503,2.1544,2.1606,2.1603,2.1632,2.1647,2.1677,2.1725,2.167,2.1671,2.168,2.1797,2.1802,2.1811,2.1728,2.173,2.1731,2.1794,0,2.1208,2.1291,2.1311,2.1383,2.1425,2.1436,2.1476,2.1513,2.1535,2.1575,2.16,2.1645,2.1636,2.1654,2.1685,2.1713,2.1749,2.1708,2.1768,2.177,2.1758,2.1822,2.1827,2.1885,2.1803,2.1804,2.1805,0,2.1282,2.1323,2.1398,2.1446,2.1464,2.15,2.1548,2.1586,2.1627,2.1642,2.1675,2.1686,2.1737,2.1717,2.1788,2.176,2.1785,2.1803,2.1805,2.1813,2.1791,2.1834,2.1903,2.1913,2.1819,2.1817,2.1816,0,2.1312,2.1385,2.1441,2.1462,2.1518,2.1544,2.1568,2.1608,2.1637,2.1679,2.1699,2.1746,2.1772,2.1809,2.1833,2.1817,2.1903,2.1885,2.1918,2.1917,2.1936,2.1935,2.2013,2.195,2.1949,2.1949,2.1949,0,2.1371,2.1417,2.1455,2.1489,2.1542,2.1565,2.1617,2.1642,2.1678,2.1719,2.173,2.1768,2.1797,2.1839,2.1858,2.1915,2.1926,2.194,2.1945,2.194,2.1938,2.1958,2.1956,2.1952,2.1951,2.1951,2.195,0,2.1414,2.144,2.1502,2.155,2.1563,2.16,2.1642,2.1676,2.1699,2.175,2.1763,2.1799,2.1849,2.1877,2.1939,2.1952,2.2016,2.2018,2.2002,2.2005,2.2037,2.2034,2.2132,2.2147,2.2071,2.2072,2.2072,0,2.145,2.1487,2.1538,2.1566,2.1591,2.1635,2.1665,2.169,2.1721,2.1772,2.1801,2.1851,2.1893,2.1973,2.2006,2.2054,2.2058,2.2089,2.2066,2.206,2.2061,2.206,2.2065,2.2094,2.2094,2.2095,2.2095,0,2.1514,2.1526,2.1568,2.1616,2.1652,2.169,2.1729,2.1751,2.1782,2.1816,2.1868,2.19,2.1965,2.2016,2.2067,2.2093,2.2101,2.2102,2.2113,2.2109,2.21,2.2108,2.2016,2.21,2.21,2.21,2.2099,2.2099,2.1557,2.159,2.1632,2.168,2.1711,2.1747,2.1782,2.181,2.1853,2.1908,2.1919,2.1974,2.2017,2.2086,2.2114,2.2158,2.2152,2.2167,2.2171,2.2175,2.2177,2.2091,2.2167,2.2167,2.2167,2.2167,2.2167,0,2.1623,2.165,2.1694,2.1748,2.1785,2.1788,2.1831,2.1863,2.1911,2.195,2.1991,2.2051,2.2101,2.2137,2.2188,2.2217,2.2222,2.223,2.2229,2.2235,2.2178,2.2165,2.2225,2.2225,2.2225,2.2225,2.2225,2.2225,2.1662,2.1719,2.1736,2.181,2.1837,2.1891,2.1916,2.195,2.1981,2.2048,2.2089,2.2112,2.2151,2.2205,2.2251,2.2261,2.228,2.2288,2.2298,2.2245,2.2239,2.2233,2.2221,2.2292,2.2292,2.2352,2.2353,2.2353]}]]